Temp
-6 -5 -5 -5 -5 -5 -5 -4 -5 -5 -5 -5 -5 -5 -5 -5 -5 -5 -5 -5 -4 -4 -5 -5 -5 -6 -5 -5 -5 -5 -5 -5 -6 -6 -6 -6 -6 -7 -7 -7 -7 -5 -7 -8
-6 -5 -6 -6 -5 -5 -5 -5 -4 -6 -6 -6 -5 -6 -6 -6 -5 -5 -5 -5 -5 -5 -5 -5 -5 -6 -6 -6 -6 -6 -6 -6 -6 -6 -6 -6 -6 -6 -7 -7 -6 -6 -7 -7
-6 -7 -5 -5 -5 -5 -6 -6 -6 -6 -6 -6 -6 -6 -6 -6 -5 -5 -5 -5 -5 -5 -5 -5 -5 -5 -5 -5 -5 -6 -6 -6 -6 -6 -6 -6 -6 -7 -7 -7 -7 -6 -6 -7
-6 -6 -6 -6 -5 -5 -5 -6 -6 -6 -6 -6 -5 -6 -6 -5 -5 -5 -5 -5 -5 -5 -5 -5 -5 -5 -5 -5 -5 -5 -5 -5 -6 -6 -6 -6 -6 -7 -7 -7 -7 -7 -7 -7
-6 -6 -6 -5 -5 -5 -5 -6 -6 -6 -6 -6 -6 -6 -5 -5 -5 -5 -5 -5 -5 -5 -5 -5 -5 -5 -5 -5 -5 -5 -5 -6 -6 -6 -6 -6 -6 -6 -6 -7 -7 -7 -7 -7
-7 -6 -6 -6 -5 -6 -6 -6 -6 -6 -6 -4 -4 -5 -5 -5 -5 -5 -5 -5 -5 -5 -5 -5 -5 -5 -5 -5 -5 -5 -6 -6 -6 -6 -6 -6 -6 -6 -7 -7 -6 -7 -7 -8
-7 -7 -7 -6 -6 -6 -6 -6 -6 -6 -5 -6 -5 -5 -5 -5 -5 -5 -5 -5 -5 -5 -5 -5 -5 -5 -5 -5 -5 -6 -6 -6 -6 -6 -6 -6 -7 -7 -7 -7 -7 -8 -8 -9
-6 -6 -6 -6 -6 -6 -6 -6 -6 -6 -6 -5 -5 -5 -5 -5 -5 -5 -5 -5 -5 -5 -5 -5 -5 -5 -5 -5 -6 -6 -6 -6 -6 -6 -7 -7 -7 -7 -7 -7 -7 -8 -9 -9
-6 -6 -6 -6 -6 -6 -6 -7 -6 -6 -6 -6 -5 -6 -5 -5 -6 -6 -6 -6 -6 -6 -5 -5 -5 -5 -5 -5 -6 -6 -6 -6 -7 -7 -7 -7 -8 -8 -8 -8 -8 -9 -9 -9
-7 -7 -7 -6 -6 -6 -7 -7 -6 -6 -7 -6 -6 -6 -6 -6 -6 -6 -6 -6 -6 -6 -6 -6 -6 -5 -6 -6 -6 -6 -6 -7 -7 -7 -7 -8 -8 -8 -8 -8 -8 -9 -9 -9
-7 -7 -7 -7 -7 -7 -7 -7 -6 -6 -6 -7 -6 -6 -6 -7 -7 -7 -7 -7 -6 -6 -6 -6 -6 -6 -6 -6 -6 -7 -7 -7 -8 -8 -8 -8 -8 -8 -8 -9 -9 -9 -9 -9
-7 -7 -7 -7 -7 -7 -7 -7 -6 -6 -7 -7 -7 -7 -7 -7 -7 -7 -7 -7 -7 -6 -6 -6 -6 -6 -6 -6 -7 -7 -7 -8 -8 -8 -8 -9 -9 -9 -9 -9 -9 -10 -10 -10
-7 -7 -7 -7 -8 -7 -8 -8 -7 -6 -7 -7 -7 -8 -8 -8 -8 -8 -7 -7 -7 -7 -7 -7 -7 -7 -7 -7 -7 -7 -8 -8 -8 -8 -8 -9 -9 -9 -9 -9 -10 -10 -10 -10
-8 -8 -8 -8 -8 -8 -8 -8 -8 -8 -7 -7 -8 -8 -8 -8 -8 -8 -8 -7 -7 -7 -7 -7 -7 -7 -7 -7 -7 -8 -8 -8 -8 -9 -9 -9 -9 -9 -9 -9 -10 -10 -11 -11
-8 -7 -8 -8 -8 -8 -7 -8 -8 -8 -7 -7 -8 -8 -8 -8 -8 -8 -8 -8 -8 -8 -8 -8 -7 -7 -7 -8 -8 -9 -9 -9 -9 -9 -9 -9 -10 -10 -10 -10 -10 -11 -11 -12
-8 -8 -8 -9 -8 -8 -7 -7 -9 -8 -8 -8 -8 -8 -9 -9 -8 -8 -8 -8 -8 -8 -8 -8 -8 -8 -8 -8 -8 -9 -9 -9 -9 -10 -10 -10 -10 -10 -10 -10 -10 -11 -11 -12
-9 -8 -7 -7 -8 -9 -8 -7 -8 -7 -8 -9 -9 -9 -9 -9 -9 -8 -8 -8 -8 -8 -8 -8 -8 -8 -8 -8 -9 -9 -9 -9 -9 -10 -10 -10 -10 -10 -10 -11 -11 -11 -12 -12
-8 -8 -9 -9 -8 -6 -6 -5 -8 -8 -9 -9 -9 -9 -9 -9 -9 -9 -8 -8 -8 -8 -9 -9 -8 -8 -9 -9 -9 -9 -9 -10 -10 -10 -10 -10 -11 -11 -11 -11 -12 -12 -13 -13
-9 -9 -9 -9 -10 -8 -6 -6 -8 -9 -9 -9 -9 -9 -9 -9 -9 -9 -9 -8 -8 -9 -9 -9 -9 -9 -9 -9 -10 -10 -10 -11 -11 -11 -11 -11 -11 -11 -12 -12 -12 -13 -13 -13
-9 -9 -9 -9 -9 -8 -6 -6 -7 -9 -9 -9 -9 -9 -9 -9 -9 -9 -9 -9 -10 -10 -10 -10 -9 -9 -10 -10 -10 -10 -11 -10 -11 -11 -11 -11 -11 -11 -12 -12 -13 -14 -14 -14
-8 -9 -9 -9 -8 -8 -8 -9 -9 -9 -10 -10 -9 -9 -9 -9 -9 -9 -9 -10 -10 -10 -10 -10 -10 -10 -10 -10 -11 -11 -11 -11 -11 -11 -12 -12 -12 -12 -13 -13 -14 -14 -14 -14
-8 -8 -8 -8 -8 -7 -8 -9 -9 -9 -9 -10 -10 -10 -10 -10 -10 -10 -10 -10 -10 -10 -10 -10 -10 -10 -10 -11 -11 -11 -11 -11 -12 -12 -12 -12 -12 -13 -14 -14 -14 -14 -15 -15
-8 -9 -8 -7 -7 -8 -8 -9 -9 -9 -9 -10 -10 -10 -10 -10 -10 -10 -11 -11 -11 -11 -11 -11 -10 -11 -11 -11 -11 -11 -11 -12 -12 -12 -12 -12 -13 -14 -15 -15 -15 -15 -15 -15
-7 -8 -8 -8 -8 -8 -9 -10 -10 -10 -10 -10 -10 -10 -10 -11 -11 -11 -11 -11 -11 -11 -11 -11 -11 -11 -11 -11 -11 -11 -11 -12 -12 -12 -13 -13 -14 -15 -15 -15 -15 -15 -16 -16
-7 -8 -9 -8 -9 -10 -10 -9 -11 -11 -9 -10 -10 -11 -11 -11 -11 -11 -11 -11 -11 -11 -11 -11 -12 -11 -11 -11 -12 -12 -12 -12 -13 -13 -14 -14 -15 -15 -15 -15 -15 -16 -16 -16
-9 -9 -9 -8 -10 -10 -10 -11 -11 -12 -11 -11 -11 -11 -11 -11 -11 -11 -12 -11 -12 -12 -12 -12 -12 -12 -12 -12 -12 -12 -12 -13 -13 -14 -14 -15 -15 -15 -15 -16 -16 -16 -16 -17
-10 -9 -9 -8 -10 -10 -10 -11 -11 -12 -12 -11 -11 -11 -12 -11 -11 -11 -11 -12 -12 -12 -12 -12 -12 -12 -12 -12 -12 -13 -13 -13 -14 -14 -15 -15 -15 -15 -15 -16 -16 -17 -17 -17
Height
5907 5915 5919 5924 5923 5927 5929 5930 5931 5934 5935 5936 5940 5942 5942 5945 5947 5945 5943 5940 5939 5938 5937 5935 5932 5929 5926 5924 5921 5920 5917 5914 5912 5908 5904 5900 5896 5892 5885 5880 5869 5856 5845 5863
5903 5909 5910 5919 5921 5925 5927 5924 5932 5931 5931 5931 5933 5936 5940 5942 5942 5943 5942 5941 5939 5938 5936 5934 5931 5928 5926 5921 5918 5915 5912 5910 5907 5904 5900 5896 5892 5886 5879 5876 5873 5866 5861 5862
5901 5906 5913 5917 5921 5922 5925 5925 5925 5927 5930 5931 5931 5935 5939 5940 5941 5941 5939 5938 5937 5935 5933 5932 5929 5927 5924 5921 5918 5913 5909 5906 5902 5898 5893 5889 5885 5882 5879 5871 5868 5866 5861 5857
5899 5903 5907 5912 5919 5922 5924 5925 5927 5928 5929 5929 5931 5936 5937 5937 5938 5939 5938 5936 5935 5934 5932 5930 5927 5925 5922 5918 5915 5911 5908 5903 5899 5894 5888 5883 5878 5874 5870 5867 5864 5860 5856 5853
5892 5897 5906 5912 5916 5919 5920 5923 5922 5922 5923 5927 5931 5933 5934 5934 5934 5935 5934 5933 5932 5931 5929 5926 5924 5921 5918 5914 5910 5906 5903 5898 5893 5888 5883 5877 5871 5866 5860 5856 5852 5849 5846 5842
5890 5895 5900 5908 5913 5915 5918 5919 5917 5915 5918 5923 5928 5932 5931 5930 5930 5930 5930 5930 5928 5926 5924 5922 5920 5917 5914 5910 5906 5902 5897 5892 5887 5881 5876 5871 5865 5859 5854 5849 5842 5836 5830 5827
5887 5892 5899 5904 5908 5911 5914 5916 5913 5913 5917 5920 5925 5927 5926 5926 5926 5926 5926 5925 5924 5922 5920 5918 5915 5912 5909 5904 5900 5896 5891 5886 5881 5876 5870 5865 5859 5853 5847 5841 5835 5830 5826 5822
5883 5886 5893 5897 5902 5904 5911 5913 5910 5909 5911 5917 5922 5922 5922 5921 5921 5921 5921 5920 5919 5918 5916 5913 5910 5907 5904 5899 5895 5890 5885 5879 5874 5868 5863 5858 5852 5847 5842 5836 5830 5825 5822 5819
5878 5883 5890 5893 5895 5900 5902 5905 5905 5906 5910 5914 5918 5917 5917 5918 5918 5918 5916 5915 5914 5913 5911 5908 5905 5901 5897 5893 5888 5883 5878 5872 5867 5862 5857 5852 5847 5842 5837 5832 5827 5823 5818 5814
5872 5878 5883 5887 5892 5894 5895 5900 5904 5906 5907 5910 5912 5911 5912 5913 5913 5913 5913 5911 5909 5907 5904 5901 5898 5894 5890 5886 5881 5876 5871 5866 5860 5855 5852 5847 5842 5838 5834 5829 5825 5820 5815 5811
5868 5873 5878 5882 5885 5889 5889 5893 5898 5902 5905 5907 5907 5906 5907 5907 5907 5907 5906 5905 5904 5901 5898 5895 5891 5886 5882 5878 5873 5869 5864 5859 5854 5850 5846 5842 5838 5834 5830 5826 5821 5817 5812 5808
5863 5868 5873 5877 5879 5882 5884 5885 5890 5896 5898 5900 5901 5901 5902 5902 5902 5901 5900 5899 5897 5894 5891 5887 5884 5880 5875 5871 5866 5862 5857 5853 5849 5845 5840 5836 5833 5829 5825 5820 5816 5811 5806 5801
5856 5866 5869 5873 5874 5877 5879 5876 5881 5887 5892 5895 5897 5896 5897 5897 5895 5894 5893 5892 5889 5887 5884 5881 5877 5873 5868 5863 5859 5855 5851 5847 5842 5839 5835 5831 5827 5823 5818 5814 5809 5804 5798 5793
5845 5854 5861 5867 5870 5869 5869 5869 5872 5879 5884 5888 5890 5890 5889 5888 5888 5887 5885 5884 5882 5880 5877 5874 5870 5866 5861 5855 5851 5847 5843 5839 5836 5831 5827 5824 5821 5817 5812 5807 5802 5797 5790 5784
5837 5846 5854 5854 5859 5860 5860 5866 5868 5874 5878 5880 5882 5882 5880 5881 5881 5881 5879 5877 5874 5873 5869 5866 5863 5859 5854 5849 5845 5840 5836 5832 5829 5825 5822 5818 5814 5809 5805 5801 5796 5788 5782 5774
5837 5840 5844 5849 5850 5850 5855 5856 5861 5868 5874 5877 5877 5874 5875 5874 5874 5873 5871 5869 5867 5864 5862 5859 5854 5850 5846 5842 5837 5833 5829 5825 5822 5818 5814 5810 5806 5801 5796 5792 5786 5779 5772 5765
5835 5840 5842 5843 5846 5847 5847 5845 5855 5862 5869 5872 5871 5870 5869 5868 5867 5866 5864 5861 5859 5856 5853 5850 5846 5842 5838 5834 5830 5826 5821 5817 5814 5811 5806 5802 5797 5792 5786 5780 5774 5768 5762 5756
5827 5835 5838 5835 5829 5836 5846 5846 5830 5851 5860 5862 5862 5863 5861 5860 5859 5858 5856 5854 5851 5847 5844 5841 5837 5832 5828 5825 5822 5819 5815 5811 5807 5803 5799 5794 5789 5783 5777 5771 5764 5758 5753 5748
5818 5823 5830 5829 5826 5830 5836 5843 5846 5847 5852 5853 5855 5854 5852 5851 5850 5849 5847 5845 5842 5839 5835 5832 5828 5824 5820 5816 5813 5811 5809 5805 5801 5796 5791 5787 5782 5775 5767 5761 5755 5750 5744 5740
5809 5814 5820 5823 5814 5822 5825 5826 5827 5838 5842 5842 5844 5844 5842 5842 5841 5839 5838 5836 5834 5831 5827 5822 5819 5816 5812 5809 5806 5803 5800 5797 5793 5787 5783 5777 5771 5766 5760 5753 5746 5741 5737 5733
5800 5805 5809 5808 5808 5809 5813 5817 5821 5826 5828 5828 5831 5832 5832 5832 5831 5831 5829 5827 5825 5821 5818 5813 5811 5808 5806 5802 5799 5796 5793 5788 5784 5779 5774 5768 5761 5755 5749 5743 5738 5734 5730 5725
5785 5792 5796 5793 5794 5801 5805 5807 5811 5813 5812 5816 5820 5821 5822 5822 5821 5821 5819 5818 5815 5812 5808 5805 5802 5800 5798 5795 5791 5788 5784 5780 5776 5770 5765 5759 5752 5746 5740 5736 5731 5727 5722 5717
5771 5778 5777 5777 5783 5792 5793 5796 5800 5802 5793 5806 5808 5810 5812 5812 5812 5811 5809 5807 5805 5803 5800 5798 5795 5793 5791 5788 5784 5781 5776 5772 5767 5761 5755 5749 5743 5738 5732 5728 5724 5719 5714 5707
5754 5753 5754 5763 5769 5772 5778 5784 5788 5793 5797 5799 5797 5800 5802 5802 5803 5801 5800 5798 5797 5794 5793 5791 5788 5786 5784 5780 5776 5771 5767 5764 5758 5752 5745 5740 5735 5730 5725 5720 5717 5711 5705 5698
5733 5735 5742 5748 5752 5760 5767 5764 5767 5785 5786 5786 5786 5789 5793 5795 5794 5792 5790 5788 5787 5786 5785 5783 5780 5778 5776 5772 5767 5763 5759 5755 5749 5743 5737 5732 5728 5723 5718 5713 5709 5704 5698 5691
5727 5733 5736 5723 5733 5738 5752 5756 5764 5769 5775 5776 5778 5783 5786 5784 5783 5783 5781 5779 5777 5779 5778 5775 5773 5771 5768 5763 5759 5755 5750 5745 5739 5734 5729 5724 5720 5716 5711 5705 5700 5694 5688 5682
5718 5720 5720 5726 5727 5739 5750 5756 5764 5768 5771 5770 5772 5773 5773 5773 5773 5771 5770 5771 5771 5770 5769 5767 5765 5761 5758 5754 5750 5745 5741 5736 5731 5726 5721 5717 5712 5708 5703 5697 5691 5686 5679 5673
Wind_Speed
27 26 21 19 17 17 6 24 27 14 10 16 8 4 4 6 10 10 8 12 13 14 15 17 19 21 23 24 24 22 23 22 23 26 29 31 31 33 32 33 39 28 21 30
31 25 22 21 14 7 8 15 22 9 12 14 15 13 11 16 16 14 11 10 11 14 15 17 19 21 23 26 28 28 28 29 29 30 32 34 34 31 30 30 30 32 34 33
30 31 21 20 18 13 12 6 9 24 23 17 19 17 13 19 16 14 14 14 13 14 16 18 19 20 22 24 25 27 29 30 31 33 35 36 33 30 31 34 30 23 26 30
35 24 22 30 18 14 22 21 16 16 21 22 24 18 22 25 21 16 14 14 13 14 15 17 20 23 23 23 23 23 24 27 30 32 35 36 36 36 34 33 28 27 26 26
33 27 27 30 25 22 21 15 26 29 30 30 25 23 26 22 18 16 14 13 14 15 17 19 22 24 25 24 24 24 26 28 30 33 35 36 35 35 36 36 37 38 37 34
29 24 26 19 30 28 21 23 26 31 31 26 23 19 19 19 18 13 13 14 15 17 20 22 24 25 27 27 26 25 27 30 32 34 34 33 34 36 39 39 39 40 40 32
32 27 26 22 19 23 28 30 33 35 30 26 18 16 19 19 18 17 15 15 18 21 23 25 27 29 30 28 26 28 30 32 33 32 32 32 34 34 33 36 37 33 30 30
38 32 34 28 29 32 28 29 35 38 35 22 10 17 20 17 16 17 18 20 23 24 26 28 30 31 33 32 30 30 32 33 33 33 33 33 30 30 32 30 29 27 26 27
43 39 34 31 29 22 26 27 29 34 24 21 14 19 19 17 17 19 20 23 25 27 28 31 32 34 36 35 33 32 33 34 33 33 33 28 27 28 26 26 26 24 26 30
36 34 28 37 30 21 30 31 28 29 32 22 20 20 18 19 21 21 22 24 26 29 32 34 35 36 36 35 33 33 34 34 32 33 29 26 27 25 23 23 23 24 25 26
38 36 34 30 32 34 32 34 38 36 30 24 21 19 19 20 23 25 26 27 29 31 34 35 36 37 36 36 35 35 34 33 33 30 27 26 26 24 24 24 26 27 29 30
41 38 39 29 30 32 34 38 36 29 26 20 19 19 19 23 26 28 30 31 32 33 34 35 34 34 35 36 35 35 35 33 31 26 28 28 27 27 28 29 32 33 35 36
51 36 37 33 28 31 34 37 35 33 30 24 21 19 21 24 26 29 31 30 30 29 29 31 33 34 37 35 34 35 34 33 28 27 28 26 27 29 31 32 35 37 40 42
45 44 36 34 34 39 41 40 39 32 30 25 22 22 25 26 27 28 29 29 28 29 30 32 34 35 38 35 35 36 35 31 27 29 27 28 29 30 32 35 38 40 44 47
53 47 43 43 44 31 41 40 35 28 30 33 29 26 29 27 29 30 30 30 30 30 32 35 36 37 37 34 35 35 33 29 29 27 27 29 32 34 35 37 40 43 44 44
46 42 41 28 37 44 36 41 43 28 28 26 27 30 29 30 31 33 32 32 33 34 36 38 40 40 39 35 37 34 30 29 29 27 29 31 34 37 38 40 44 46 46 41
38 46 39 46 44 43 53 36 29 25 28 28 31 32 32 34 35 36 35 35 36 37 40 42 41 40 38 37 37 31 30 30 28 29 31 34 37 39 42 45 46 46 43 34
48 44 36 48 49 45 44 41 25 24 28 34 36 35 36 37 39 39 39 39 39 41 44 43 42 40 39 36 32 29 28 27 29 31 34 37 39 42 44 46 45 43 35 31
59 56 53 50 52 55 48 45 46 29 35 40 39 39 39 40 40 41 41 43 44 44 43 43 41 37 35 29 28 28 27 28 31 34 35 38 41 43 45 46 44 38 33 31
56 56 55 56 60 54 50 49 45 39 41 43 41 40 39 40 40 41 43 46 45 44 44 41 35 34 30 28 27 27 29 31 34 36 38 41 45 45 44 42 39 33 32 33
50 51 50 54 55 53 53 54 53 48 48 47 43 42 40 39 40 42 45 45 43 43 38 35 35 33 31 29 29 29 31 34 34 37 40 43 44 43 41 38 35 33 34 35
52 51 54 60 61 57 56 54 54 52 55 43 35 34 37 40 41 43 44 42 42 37 33 34 32 30 31 30 29 32 34 35 37 41 42 43 42 39 37 34 34 35 36 37
45 52 60 63 61 57 59 56 54 48 46 44 40 38 41 42 43 43 42 41 37 33 35 32 27 29 30 30 31 32 34 38 41 41 42 42 39 36 33 33 34 36 38 39
44 55 64 63 62 62 57 51 45 43 41 37 35 39 43 43 43 41 38 33 32 34 32 28 28 28 30 31 32 34 38 40 41 42 41 39 35 32 33 35 37 38 39 39
52 58 60 61 62 62 55 55 39 43 37 35 38 41 41 41 40 39 35 32 32 32 28 28 27 29 31 32 33 37 39 40 41 39 37 35 33 34 35 37 38 38 37 38
42 42 43 64 64 67 46 18 28 31 34 34 34 34 35 36 43 48 38 32 26 27 29 27 28 31 32 33 36 38 40 41 40 37 34 34 34 36 37 38 40 40 39 39
37 46 54 34 10 25 36 44 39 35 34 33 28 30 35 40 39 47 51 34 26 26 27 29 29 30 32 35 37 39 41 39 37 35 34 34 37 38 39 39 39 38 39 41
Wind_Direction
193 198 196 200 243 231 207 204 211 207 247 269 276 109 18 343 316 316 349 338 341 344 343 341 341 339 337 338 336 334 330 331 330 323 321 325 324 322 318 322 320 332 300 323
205 172 182 186 229 193 244 151 216 204 224 256 290 302 332 326 320 321 330 329 327 332 333 337 334 330 330 328 327 326 324 323 322 323 323 324 324 325 319 323 326 323 315 314
187 173 176 186 197 203 203 134 150 204 217 246 269 284 305 308 308 315 317 314 322 329 334 336 334 333 329 326 322 319 318 318 320 321 321 321 322 321 318 319 320 314 305 306
173 160 155 172 172 192 196 196 205 221 233 247 266 285 285 292 297 304 300 299 306 319 325 330 334 333 329 326 321 313 311 312 316 317 318 319 318 317 317 316 315 313 308 303
196 170 172 180 167 166 201 214 224 225 234 242 250 263 282 285 291 294 291 293 303 312 323 332 332 330 328 326 324 319 316 317 318 317 318 317 317 319 319 319 318 318 318 318
195 179 176 192 197 191 198 209 230 245 252 256 263 270 278 283 285 286 288 292 302 319 329 332 331 331 328 328 327 324 321 321 321 321 321 320 321 318 318 321 322 321 321 324
178 190 189 193 209 209 209 213 230 244 254 261 267 270 279 280 280 287 293 303 319 327 327 328 330 333 332 331 329 327 325 325 323 321 320 320 320 325 328 328 325 326 328 326
186 192 189 185 201 211 212 226 242 250 254 268 274 266 271 282 295 301 305 314 319 319 322 325 326 328 329 329 328 327 326 326 325 324 322 322 325 329 333 338 340 341 340 335
211 209 200 203 211 218 228 229 245 247 263 275 277 273 277 286 292 298 306 310 311 315 318 320 321 324 326 328 329 327 326 326 325 323 323 325 328 332 339 347 348 341 336 333
203 198 211 211 211 223 231 235 238 249 263 291 269 269 277 286 290 296 300 302 308 313 315 316 319 321 324 327 327 325 327 326 323 322 323 324 327 329 336 343 343 340 337 335
198 197 207 218 218 215 227 231 238 246 259 267 261 271 281 288 293 296 301 304 306 309 311 314 317 320 324 328 325 325 326 323 322 319 321 326 328 326 328 334 335 333 330 325
199 192 201 213 231 236 240 242 246 254 257 261 267 272 279 283 289 294 299 303 305 305 307 309 313 320 324 326 323 324 323 321 320 316 320 324 325 326 325 327 328 327 324 322
202 203 202 207 224 239 246 249 254 253 255 265 273 274 282 288 292 296 299 301 303 303 306 312 317 321 325 325 323 322 320 320 315 313 317 320 322 323 323 325 324 323 320 320
183 190 203 210 227 221 228 235 243 246 258 269 274 283 294 298 302 302 303 303 302 306 310 314 319 323 325 322 321 320 319 316 312 314 317 320 322 321 322 323 322 320 318 318
189 192 198 207 219 231 244 251 249 255 263 270 276 284 288 295 299 300 304 305 304 307 312 315 319 322 323 318 315 316 313 311 311 310 313 318 319 319 319 319 319 318 317 317
191 199 201 211 205 215 226 220 236 247 259 263 269 273 283 286 293 297 304 304 305 308 310 314 319 321 318 314 312 312 306 307 309 309 313 318 318 318 317 317 318 319 319 317
203 208 220 223 220 234 234 243 249 254 256 259 261 266 274 283 290 295 299 301 302 305 308 313 316 316 313 310 309 306 305 307 308 310 314 318 317 316 316 317 319 319 319 316
215 210 228 231 236 239 244 253 220 246 251 252 257 265 273 281 288 294 297 297 300 303 307 315 313 309 308 308 306 303 304 306 307 311 317 317 316 315 316 318 319 319 316 313
228 230 224 232 239 249 253 251 245 255 249 253 259 264 271 279 286 291 291 294 298 305 311 311 308 306 305 305 305 304 307 307 309 313 315 313 314 317 319 320 320 318 314 312
228 233 234 238 245 250 257 261 267 258 256 260 264 266 271 276 281 284 287 292 300 307 308 309 302 305 303 304 303 305 307 309 312 314 314 314 315 317 320 319 316 316 313 314
229 231 234 240 246 249 252 255 256 257 259 261 263 266 270 275 277 281 286 293 302 305 307 302 299 300 302 300 303 308 308 310 313 312 313 315 317 320 319 318 316 316 316 315
232 229 233 242 245 245 247 251 256 254 250 253 256 264 267 271 276 281 288 295 298 301 297 298 299 298 298 299 303 306 309 312 312 312 315 317 319 318 318 319 318 318 316 316
229 228 234 238 244 247 248 249 250 247 259 246 256 256 264 272 275 282 287 293 296 293 297 298 295 295 296 299 304 307 310 311 311 313 317 318 317 317 318 319 319 318 318 319
226 226 230 233 235 238 240 239 235 239 247 246 251 257 262 268 275 280 288 291 290 292 293 290 292 295 298 301 306 311 311 311 313 316 318 316 315 317 317 319 322 322 321 320
225 226 227 231 233 234 236 222 212 237 239 243 249 256 264 274 281 283 282 283 288 288 286 287 293 295 298 303 308 310 310 312 314 315 314 314 316 317 318 319 318 317 319 318
236 236 237 241 235 230 228 219 227 235 239 246 251 263 273 282 285 280 273 276 274 280 281 288 293 296 301 307 308 308 312 314 313 313 315 318 318 315 315 317 316 317 320 320
233 234 222 223 209 195 210 226 233 240 246 253 265 272 274 281 287 292 272 264 273 276 281 288 292 297 302 306 308 311 313 313 313 316 317 317 314 313 314 315 317 320 320 321